Location: Bullenkuhlen
(53.7689°N, 9.7495°E)
Time: 17:38:21
(UTC+00:00)

FALCON 9 DEB - Pass Details

Date: 09 April 2020
Orbit: 429 x 441 km, 53.0° (Epoch: 23 May)

Event Time Altitude Azimuth Distance (km) Brightness Sun altitude
Rises 21:04:13 0° 257° (WSW) 2,430 7.2 -21.7°
Reaches altitude 10° 21:06:20 10° 256° (WSW) 1,560 6.2 -21.9°
Enters shadow 21:08:22 32° 250° (WSW) 782 4.5 -22.1°
